Location: ??????
(55.7522°N, 37.6156°E)
Time: 17:24:55
(UTC+00:00)

Cosmos 1953 - Pass Details

Date: 14 June 2025
Orbit: 485 x 500 km, 82.5° (Epoch: 12 July)

Event Time Altitude Azimuth Distance (km) Brightness Sun altitude
Rises 19:11:39 0° 350° (N) 2,604 7.3 -5.7°
Reaches altitude 10° 19:13:49 10° 355° (N) 1,717 6.1 -5.8°
Maximum altitude 19:17:31 55° 74° (ENE) 609 2.5 -6.1°
Drops below altitude 10° 19:21:12 10° 154° (SSE) 1,710 4.1 -6.3°
Enters shadow 19:21:33 - 155° (SSE) 1,852 4.3 -6.4°
